EDT,Max TemperatureF,Mean TemperatureF,Min TemperatureF,Max Dew PointF,MeanDew PointF,Min DewpointF,Max Humidity, Mean Humidity, Min Humidity, Max Sea Level PressureIn, Mean Sea Level PressureIn, Min Sea Level PressureIn, Max VisibilityMiles, Mean VisibilityMiles, Min VisibilityMiles, Max Wind SpeedMPH, Mean Wind SpeedMPH, Max Gust SpeedMPH,PrecipitationIn, CloudCover, Events, WindDirDegrees
2011-9-1,75,62,51,58,54,50,100,82,57,30.28,30.24,30.18,10,8,2,10,2,,0.00,3,,155
2011-9-2,78,63,51,59,55,52,100,81,52,30.20,30.14,30.00,10,8,1,8,1,,0.00,2,,153
2011-9-3,84,70,55,71,64,53,100,84,58,30.00,29.90,29.85,10,8,2,5,2,,0.00,0,,101
2011-9-4,88,74,62,73,66,62,100,91,61,29.91,29.86,29.75,10,4,0,10,1,16,0.01,4,Fog-Thunderstorm,168
2011-9-5,77,69,61,70,67,60,100,88,68,29.93,29.81,29.77,10,8,1,15,3,23,0.86,6,Rain-Thunderstorm,218
2011-9-6,73,65,57,62,57,53,97,82,51,30.25,30.05,29.92,10,10,7,7,3,,0.24,6,Rain,329
2011-9-7,61,58,55,58,56,54,100,96,86,30.34,30.27,30.19,10,7,3,7,3,,0.56,8,Rain,52
2011-9-8,73,64,55,64,58,55,100,89,66,30.19,30.11,29.97,10,9,2,6,1,,0.19,7,Rain,351
2011-9-9,79,69,60,63,59,54,100,86,43,29.96,29.86,29.72,10,6,0,6,0,,0.01,3,Fog,210
2011-9-10,72,58,43,55,48,43,100,84,41,30.14,29.97,29.82,10,6,0,7,2,,0.00,0,Fog,43
2011-9-11,71,54,39,56,45,39,100,88,51,30.18,30.12,29.99,10,5,0,9,1,,0.00,4,Fog,204
2011-9-12,81,66,52,64,58,52,100,80,50,29.97,29.93,29.89,10,9,2,9,2,,0.04,0,,236
2011-9-13,82,66,51,63,56,50,100,86,49,29.95,29.89,29.78,10,6,1,12,2,18,0.00,0,,206
2011-9-14,80,68,54,63,59,53,97,75,48,29.97,29.88,29.79,10,9,4,10,4,16,0.00,1,,220
2011-9-15,66,57,48,61,56,43,100,92,77,29.96,29.90,29.84,10,7,1,7,1,,0.29,7,Rain-Thunderstorm,312
2011-9-16,57,48,37,41,36,33,89,62,42,30.35,30.16,29.95,10,10,10,14,6,29,0.01,0,,291
2011-9-17,64,47,30,49,36,30,100,87,37,30.50,30.41,30.34,10,5,0,7,2,,0.00,1,Fog,277
2011-9-18,66,50,37,47,42,37,100,84,39,30.55,30.47,30.42,10,7,0,7,1,,0.00,1,Fog,54
2011-9-19,66,50,35,49,40,34,100,89,42,30.42,30.32,30.15,10,4,0,5,0,,0.00,2,Fog,167
2011-9-20,66,54,43,57,50,41,100,93,73,30.16,30.10,30.03,10,7,0,7,1,,0.02,4,Fog-Rain,231
2011-9-21,73,58,42,57,50,42,100,90,48,30.27,30.22,30.15,10,4,0,8,1,,0.01,3,Fog,254
2011-9-22,70,62,55,65,60,55,100,95,83,30.22,30.16,30.11,10,7,1,5,0,,0.25,8,Rain,350
2011-9-23,75,70,64,67,65,64,100,95,71,30.19,30.14,30.08,10,5,0,4,0,,0.04,6,Fog-Rain,114
2011-9-24,77,70,64,70,66,64,100,94,76,30.08,30.04,30.00,10,7,2,5,2,,0.34,7,Rain,61
2011-9-25,82,72,60,69,67,59,100,91,52,30.11,30.08,30.02,10,5,0,5,0,,0.00,5,Fog,10
2011-9-26,82,66,51,62,54,50,100,92,42,30.04,30.01,29.94,10,5,0,5,0,,0.01,1,Fog,25
2011-9-27,77,60,44,60,49,45,100,95,48,30.12,30.03,30.00,10,4,0,5,0,,0.01,1,Fog,54
2011-9-28,70,62,53,56,55,52,100,89,60,30.19,30.13,30.07,10,7,1,10,1,,0.00,6,,106
2011-9-29,61,58,57,61,58,55,100,96,93,30.05,29.76,29.53,10,6,1,9,2,,0.98,8,Rain-Thunderstorm,21
2011-9-30,71,62,53,60,56,52,96,81,59,29.73,29.67,29.55,10,10,7,9,6,21,0.00,4,,223